Weather History for KFDY - December, 2014

Change the Weather History Date:

Wednesday, December 10, 2014

  Actual Average Record
Temperature  
Mean Temperature 30 °F -  
Max Temperature 36 °F 36 °F 65 °F (1971)
Min Temperature 21 °F 24 °F -7 °F (1958)
Degree Days  
Heating Degree Days 34    
Moisture  
Dew Point 23 °F    
Average Humidity 74    
Maximum Humidity 85    
Minimum Humidity 69    
Precipitation  
Precipitation 0.00 in - - ()
Sea Level Pressure  
Sea Level Pressure 30.22 in    
Wind  
Wind Speed 12 mph (NNW)    
Max Wind Speed 17 mph    
Max Gust Speed 25 mph    
Visibility 10 miles    
Events      
Averages and records for this station are not official NWS values.
T = Trace of Precipitation, MM = Missing Value Source: NWS Daily Summary

Daily Weather History Graph

Daily Weather History Graph

Search for Another Location

Airport or City:

Trip Planner

Search our weather history database for the weather conditions in past years. The results will help you decide how hot, cold, wet, or windy it might be!

Date:

Astronomy

Dec. 10, 2014 Rise Set
Actual Time 7:48 AM EST 5:06 PM EST
Civil Twilight 7:17 AM EST 5:37 PM EST
Nautical Twilight 6:43 AM EST 6:11 PM EST
Astronomical Twilight 6:09 AM EST 6:45 PM EST
Moon 9:21 PM EST (12/10) 10:37 AM EST (12/10)
Length of Visible Light 10h 19m
Length of Day
9h 17m
Waning Gibbous, 83% of the Moon is Illuminated
Dec 10
Waning Gibbous
Dec 14
Last Quarter
Dec 21
New
Dec 28
First Quarter
Jan 4
Full

Hourly Weather History & Observations

Time (EST) Temp. Windchill Dew Point Humidity Pressure Visibility Wind Dir Wind Speed Gust Speed Precip Events Conditions
12:53 AM 36.0 °F 27.5 °F 28.9 °F 76% 30.23 in 10.0 mi North 12.7 mph - N/A   Overcast
1:53 AM 35.1 °F 27.9 °F 27.0 °F 72% 30.23 in 10.0 mi North 9.2 mph - N/A   Overcast
2:50 AM 33.8 °F 24.8 °F 26.6 °F 75% 30.23 in 10.0 mi NNW 12.7 mph - N/A   Overcast
2:53 AM 34.0 °F 25.5 °F 27.0 °F 75% 30.25 in 10.0 mi NNW 11.5 mph - N/A   Overcast
3:28 AM 34.0 °F 25.5 °F 27.0 °F 75% 30.23 in 10.0 mi NNW 11.5 mph - N/A   Overcast
3:53 AM 34.0 °F 25.0 °F 27.0 °F 75% 30.24 in 10.0 mi NNW 12.7 mph - N/A   Overcast
4:53 AM 33.1 °F 23.4 °F 27.0 °F 78% 30.24 in 10.0 mi NNW 13.8 mph - N/A   Overcast
5:53 AM 32.0 °F 23.0 °F 26.1 °F 79% 30.24 in 10.0 mi North 11.5 mph - N/A   Overcast
6:53 AM 32.0 °F 20.8 °F 25.0 °F 75% 30.25 in 10.0 mi North 17.3 mph - N/A   Overcast
7:53 AM 30.9 °F 21.2 °F 24.1 °F 76% 30.26 in 10.0 mi NNW 12.7 mph - N/A   Overcast
8:53 AM 30.9 °F 21.7 °F 24.1 °F 76% 30.27 in 10.0 mi North 11.5 mph - N/A   Overcast
9:23 AM 30.0 °F 18.3 °F 23.0 °F 75% 30.26 in 10.0 mi North 17.3 mph 25.3 mph N/A   Overcast
9:53 AM 30.0 °F 18.7 °F 23.0 °F 75% 30.28 in 10.0 mi North 16.1 mph - N/A   Overcast
10:53 AM 30.0 °F 20.5 °F 23.0 °F 75% 30.28 in 10.0 mi NNW 11.5 mph - N/A   Overcast
11:53 AM 30.0 °F 20.5 °F 23.0 °F 75% 30.26 in 10.0 mi NNW 11.5 mph - N/A   Overcast
12:53 PM 30.9 °F 21.7 °F 21.9 °F 69% 30.24 in 10.0 mi NNW 11.5 mph - N/A   Overcast
1:53 PM 30.9 °F 22.2 °F 21.9 °F 69% 30.22 in 10.0 mi NNW 10.4 mph - N/A   Overcast
2:53 PM 30.9 °F 21.7 °F 23.0 °F 72% 30.20 in 10.0 mi NNW 11.5 mph - N/A   Overcast
3:53 PM 30.9 °F 21.7 °F 21.9 °F 69% 30.20 in 10.0 mi NNW 11.5 mph - N/A   Overcast
4:53 PM 30.9 °F 23.5 °F 21.9 °F 69% 30.20 in 10.0 mi NNW 8.1 mph - N/A   Overcast
5:53 PM 30.9 °F 23.5 °F 21.9 °F 69% 30.19 in 10.0 mi NNW 8.1 mph - N/A   Overcast
6:53 PM 30.9 °F 24.3 °F 23.0 °F 72% 30.19 in 10.0 mi NNW 6.9 mph - N/A   Overcast
7:53 PM 30.0 °F 21.1 °F 21.9 °F 72% 30.19 in 10.0 mi NNW 10.4 mph - N/A   Overcast
8:53 PM 30.0 °F 21.7 °F 21.0 °F 69% 30.18 in 10.0 mi NNW 9.2 mph - N/A   Overcast
9:38 PM 27.0 °F 18.0 °F 19.9 °F 75% 30.17 in 10.0 mi NNW 9.2 mph - N/A   Partly Cloudy
9:53 PM 27.0 °F 18.7 °F 19.9 °F 75% 30.19 in 10.0 mi NNW 8.1 mph - N/A   Clear
10:53 PM 25.0 °F 19.3 °F 19.0 °F 78% 30.17 in 10.0 mi WNW 4.6 mph - N/A   Clear
11:53 PM 21.9 °F 13.4 °F 18.0 °F 85% 30.15 in 10.0 mi West 6.9 mph - N/A   Clear